QPF
0.00 0.00 0.00 0.00 0.00 0.00 0.00 0.00 0.00 0.00 0.00 0.00 0.00 0.00 0.00 0.00 0.00 0.00 0.00 0.00 0.02 0.03
0.00 0.00 0.00 0.00 0.00 0.00 0.00 0.00 0.00 0.00 0.00 0.00 0.00 0.00 0.00 0.00 0.00 0.01 0.01 0.01 0.02 0.04
0.00 0.00 0.00 0.00 0.00 0.00 0.00 0.00 0.00 0.00 0.00 0.00 0.00 0.00 0.00 0.00 0.00 0.00 0.00 0.00 0.00 0.01
0.00 0.00 0.00 0.00 0.00 0.00 0.00 0.00 0.00 0.00 0.00 0.00 0.00 0.00 0.00 0.00 0.00 0.00 0.00 0.00 0.00 0.00
0.00 0.00 0.00 0.00 0.00 0.00 0.00 0.00 0.00 0.00 0.00 0.00 0.00 0.00 0.00 0.00 0.00 0.00 0.00 0.00 0.01 0.00
0.00 0.00 0.00 0.00 0.00 0.00 0.00 0.00 0.00 0.00 0.00 0.00 0.00 0.00 0.00 0.00 0.00 0.00 0.00 0.00 0.00 0.00
0.00 0.00 0.00 0.00 0.00 0.00 0.00 0.00 0.00 0.00 0.00 0.00 0.00 0.00 0.00 0.00 0.00 0.00 0.00 0.00 0.00 0.00
0.00 0.00 0.00 0.00 0.00 0.00 0.00 0.00 0.00 0.00 0.00 0.00 0.00 0.00 0.00 0.00 0.00 0.00 0.00 0.01 0.01 0.01
0.00 0.00 0.00 0.00 0.00 0.00 0.00 0.00 0.00 0.00 0.00 0.00 0.00 0.00 0.00 0.01 0.01 0.01 0.02 0.02 0.03 0.05
0.00 0.00 0.00 0.00 0.00 0.00 0.00 0.00 0.00 0.00 0.00 0.00 0.00 0.00 0.00 0.01 0.04 0.04 0.03 0.02 0.03 0.05
0.00 0.00 0.00 0.00 0.00 0.00 0.00 0.00 0.00 0.00 0.00 0.00 0.00 0.00 0.00 0.00 0.02 0.01 0.02 0.06 0.04 0.01
0.00 0.00 0.00 0.00 0.00 0.00 0.00 0.00 0.00 0.00 0.00 0.00 0.00 0.00 0.00 0.00 0.00 0.00 0.00 0.01 0.00 0.00
0.00 0.00 0.00 0.00 0.00 0.00 0.00 0.00 0.00 0.00 0.00 0.00 0.00 0.00 0.00 0.00 0.00 0.00 0.00 0.00 0.00 0.00
0.00 0.00 0.00 0.00 0.00 0.00 0.01 0.01 0.00 0.00 0.00 0.00 0.00 0.00 0.00 0.00 0.00 0.00 0.00 0.00 0.00 0.00
MSLP
1014.45 1014.06 1013.52 1012.93 1012.28 1011.76 1011.23 1010.77 1010.25 1009.98 1009.68 1009.24 1008.94 1008.69 1008.55 1008.31 1007.95 1007.60 1007.11 1006.96 1006.70 1006.29
1013.65 1013.10 1012.55 1011.94 1011.38 1010.76 1010.22 1009.76 1009.27 1008.86 1008.68 1008.41 1008.04 1007.78 1007.57 1007.30 1007.07 1006.60 1006.13 1005.94 1005.71 1005.49
1012.86 1012.22 1011.60 1011.05 1010.56 1009.84 1009.26 1008.71 1008.28 1007.85 1007.54 1007.26 1007.03 1006.77 1006.48 1006.23 1006.10 1005.89 1005.58 1005.32 1005.02 1004.72
1012.07 1011.35 1010.73 1010.23 1009.59 1008.92 1008.27 1007.81 1007.35 1006.77 1006.44 1006.16 1005.90 1005.64 1005.38 1005.25 1005.29 1005.22 1004.98 1004.53 1004.18 1003.91
1011.07 1010.47 1009.88 1009.30 1008.51 1007.86 1007.36 1006.87 1006.34 1005.88 1005.49 1005.22 1004.88 1004.55 1004.35 1004.20 1004.13 1003.92 1003.72 1003.44 1003.19 1003.01
1010.27 1009.66 1009.00 1008.13 1007.51 1006.82 1006.40 1005.92 1005.40 1005.10 1004.55 1003.93 1003.67 1003.37 1003.20 1003.03 1002.96 1002.86 1002.83 1002.65 1002.43 1002.22
1009.41 1008.67 1007.86 1007.13 1006.60 1006.01 1005.49 1005.01 1004.46 1004.03 1003.45 1002.78 1002.55 1002.35 1002.03 1001.87 1001.84 1001.87 1001.74 1001.49 1001.44 1001.30
1008.79 1008.10 1007.57 1006.53 1005.69 1004.93 1004.48 1003.96 1003.39 1002.77 1002.32 1001.54 1001.31 1000.67 1000.53 1000.55 1000.54 1000.55 1000.44 1000.35 1000.27 1000.06
1007.96 1007.18 1006.43 1005.64 1004.72 1003.89 1003.28 1002.79 1002.26 1001.46 1000.94 1000.44 999.85 999.32 999.20 999.34 999.39 999.34 999.41 999.22 999.23 999.25
1007.44 1006.61 1005.82 1004.98 1004.10 1003.24 1002.36 1001.64 1000.95 999.79 999.32 998.91 998.63 998.39 998.06 998.10 997.99 998.20 998.48 998.52 998.65 999.26
1007.09 1006.20 1005.33 1004.52 1003.70 1002.72 1001.90 1000.74 999.36 998.17 996.86 996.99 997.09 997.52 997.66 996.89 996.95 997.91 998.78 999.19 999.88 1000.89
1006.81 1005.77 1004.76 1003.84 1003.06 1002.12 1001.23 999.84 998.26 995.78 994.09 994.84 996.48 997.22 997.33 997.31 998.41 999.59 1000.97 1001.32 1001.73 1002.72
1006.15 1005.27 1004.47 1003.61 1002.63 1001.61 1000.71 999.88 998.48 996.68 996.07 996.34 997.61 998.39 998.41 999.03 1000.03 1001.36 1002.46 1003.63 1004.20 1004.97
1005.87 1005.02 1004.30 1003.16 1002.38 1001.67 1001.33 1000.68 999.69 999.23 999.23 999.41 999.89 1000.25 1000.52 1000.86 1001.88 1003.28 1004.25 1005.40 1006.60 1007.50
Thickness
5394 5388 5385 5385 5387 5388 5390 5391 5393 5394 5397 5401 5404 5407 5412 5422 5433 5444 5458 5470 5485 5503
5389 5384 5382 5382 5383 5386 5387 5389 5391 5393 5393 5396 5399 5403 5407 5416 5426 5440 5454 5465 5478 5494
5382 5379 5378 5378 5380 5383 5385 5387 5388 5390 5393 5395 5399 5402 5408 5415 5425 5436 5448 5460 5473 5488
5374 5375 5375 5375 5378 5380 5383 5384 5388 5392 5395 5399 5403 5408 5413 5418 5424 5432 5443 5455 5469 5484
5371 5370 5371 5374 5378 5380 5382 5386 5389 5395 5399 5402 5406 5411 5417 5422 5427 5437 5446 5458 5470 5484
5368 5368 5371 5379 5380 5384 5387 5390 5395 5397 5402 5408 5412 5418 5422 5429 5434 5440 5447 5457 5470 5483
5369 5374 5380 5383 5385 5388 5391 5394 5398 5402 5408 5415 5418 5422 5430 5435 5439 5445 5453 5464 5476 5489
5375 5378 5380 5388 5392 5397 5399 5402 5407 5413 5417 5427 5432 5439 5442 5445 5450 5456 5466 5476 5487 5503
5384 5388 5392 5397 5402 5408 5411 5415 5420 5428 5435 5441 5449 5456 5460 5462 5467 5476 5483 5493 5503 5515
5391 5395 5399 5405 5411 5418 5424 5430 5436 5448 5453 5458 5464 5466 5478 5483 5489 5495 5501 5509 5516 5520
5398 5404 5410 5415 5420 5427 5433 5441 5456 5468 5482 5483 5485 5484 5491 5503 5507 5506 5506 5510 5513 5513
5408 5415 5422 5426 5431 5437 5442 5455 5471 5497 5516 5512 5497 5497 5501 5508 5503 5497 5493 5500 5506 5505
5421 5426 5430 5434 5440 5449 5458 5468 5483 5501 5508 5508 5498 5497 5504 5504 5498 5493 5492 5490 5493 5491
5433 5438 5441 5450 5456 5464 5468 5473 5485 5492 5493 5494 5493 5493 5497 5500 5496 5491 5489 5484 5479 5477